Estación Meteorológica Peña el Pijo (Robertgarden) [ 09/30/20 11:25:12 CEST ]

Fecha Hora Presion(HPa) Temp (°C) Humedad % Rocio (°C) Viento ( m/s) Direccion Lluvia 1Hora(mm) Lluvia 24H(mm) LLuvia Total(mm)
2020-Apr-07 01:09:00 1013.100 - - - - SSW     39.88
2020-Apr-07 02:09:02 1013.000 - - - - SSW     39.88
2020-Apr-07 03:09:13 1012.900 - - - - SSW     39.88
2020-Apr-07 04:08:56 1012.800 - - - - SSW     39.88
2020-Apr-07 05:09:15 1012.700 - - - - SSW     39.88
2020-Apr-07 06:09:37 1012.700 - - - - SSW     39.88
2020-Apr-07 07:09:22 1013.000 - - - - SSW     39.88
2020-Apr-07 08:09:33 1012.500 - - - - SSW     39.88
2020-Apr-07 09:09:44 1012.900 - - - - SSW     39.88
2020-Apr-07 10:09:37 1013.200 - - - - SSW     39.88
2020-Apr-07 11:09:05 1013.700 - - - - SSW     39.88
2020-Apr-07 12:09:18 1013.700 - - - - SSW     39.88
2020-Apr-07 13:09:04 1013.300 - - - - SSW     39.88
2020-Apr-07 14:09:06 1013.200 - - - - SSW     39.88
2020-Apr-07 15:09:53 1013.000 - - - - SSW     39.88
2020-Apr-07 16:09:31 1012.800 - - - - SSW     39.88
2020-Apr-07 17:09:33 1012.500 - - - - SSW     39.88
2020-Apr-07 18:09:02 1012.500 - - - - SSW     39.88
2020-Apr-07 19:09:02 1012.600 - - - - SSW     39.88
2020-Apr-07 20:09:36 1012.800 - - - - SSW     39.88
2020-Apr-07 21:08:55 1013.300 - - - - SSW     39.88
2020-Apr-07 22:09:05 1014.100 - - - - SSW     39.88
2020-Apr-07 23:09:35 1014.400 - - - - SSW     39.88

Temperatura Máxima:    Temperatura Mínima:
Presión Máxima:1014.400 Hpa    Presión Mínima:1012.500 Hpa


Volver